Regional Weather Roundup
Issued by NWS

Home | Current Version | Previous Version | Text Only | Print | Product List | Glossary Off
Versions: 1 2 3 4 5 6 7 8 9 10 11 12 13 14 15 16 17 18 19 20 21 22 23 24 25 26 27 28 29 30 31 32 33 34 35 36 37 38 39 40 41 42 43 44 45 46 47 48 49 50

000
ASUS43 KOAX 242102
RWRNE

WEATHER ROUNDUP FOR NEBRASKA
NATIONAL WEATHER SERVICE OMAHA NE
400 PM CDT SUN JUL 24 2016

NOTES: SATELLITE DATA IS BEING USED TO AUGMENT CLOUD COVER ABOVE
       12000 FEET.
       "FAIR" INDICATES FEW OR NO CLOUDS BELOW 12,000 FEET WITH NO
       SIGNIFICANT WEATHER AND/OR OBSTRUCTIONS TO VISIBILITY.

  * THESE STATIONS DO NOT REPORT WEATHER SUCH AS RAIN...SNOW OR FOG.

NEZ001>004-019>022-054>056-242200-
NEBRASKA PANHANDLE

CITY           SKY/WX    TMP DP  RH WIND       PRES   REMARKS
SCOTTSBLUFF    MOSUNNY   81  54  39 E17       30.11F
ALLIANCE       CLOUDY    83  52  34 SE17G23   30.14F
CHADRON        SUNNY     89  44  20 SE12G23   30.10F
KIMBALL        SUNNY     84  59  42 SE13      30.18F
SIDNEY         SUNNY     86  53  32 SE13G24   30.17S
$$

NEZ057>060-069>072-079>082-242200-
SOUTHWEST NEBRASKA

CITY           SKY/WX    TMP DP  RH WIND       PRES   REMARKS
NORTH PLATTE   CLOUDY    85  61  44 E15       30.09R
IMPERIAL       SUNNY     88  53  30 E9        30.09R
LEXINGTON      SUNNY     84  56  37 E16G26    30.05F
MCCOOK         SUNNY     89  58  34 E25       30.04F
OGALLALA       SUNNY     85  48  28 E13G18    30.13S
$$

NEZ005>010-023>029-035>040-094-242200-
NORTH CENTRAL NEBRASKA

CITY           SKY/WX    TMP DP  RH WIND       PRES   REMARKS
VALENTINE      SUNNY     86  46  24 N6        30.11F
AINSWORTH      SUNNY     82  58  42 NE3       30.11F
BROKEN BOW     MOSUNNY   80  63  55 NE8       30.08F
O`NEILL        CLOUDY    81  52  35 NW5       30.10F
ORD            CLOUDY    85  59  41 NE9       30.07R
THEDFORD       SUNNY     87  53  31 E14       30.12F
$$

NEZ041-046>049-061>064-073>077-083>087-242200-
SOUTH CENTRAL NEBRASKA

CITY           SKY/WX    TMP DP  RH WIND       PRES   REMARKS
GRAND ISLAND   SUNNY     88  60  38 NE17      30.05F
AURORA         SUNNY     85  62  45 NE16      30.05S
HASTINGS       SUNNY     85  62  46 NE13      30.07R
HEBRON         CLOUDY    80  66  61 NE10      30.03S
HOLDREGE       SUNNY     85  58  40 E16       30.07S
KEARNEY *      SUNNY     88  61  40 NE14      30.07F
$$

NEZ011>018-030>034-042>045-242200-
NORTHEAST NEBRASKA

CITY           SKY/WX    TMP DP  RH WIND       PRES   REMARKS
NORFOLK        CLOUDY    84  55  36 N13       30.05F
ALBION         CLOUDY    81  65  57 NE6       30.07F
BLAIR          CLOUDY    82  66  57 N9        30.03S
FREMONT        CLOUDY    84  64  49 NW8       30.04S
TEKAMAH        CLOUDY    88  65  46 N6        30.01S HX  90
WAYNE          CLOUDY    82  64  53 N6        30.05S
$$

NEZ050>053-065>068-078-088>093-242200-
SOUTHEAST NEBRASKA

CITY           SKY/WX    TMP DP  RH WIND       PRES   REMARKS
LINCOLN        CLOUDY    81  66  60 NE8       30.03F
OMAHA EPPLEY   CLOUDY    85  70  60 NW8       30.01R
BEATRICE       CLOUDY    78  66  66 NE8       30.02R
FALLS CITY     CLOUDY    81  73  76 NW8       29.98R
NEBRASKA CITY  CLOUDY    79  66  65 N8        30.02R
PLATTSMOUTH    CLOUDY    81  68  65 CALM      30.05R
$$

NEZ044-045-051>053-067-242200-
OMAHA AREA

CITY           SKY/WX    TMP DP  RH WIND       PRES   REMARKS
OMAHA EPPLEY   CLOUDY    85  70  60 NW8       30.01R
BLAIR          CLOUDY    82  66  57 N9        30.03S
FREMONT        CLOUDY    84  64  49 NW8       30.04S
MILLARD        CLOUDY    84  66  55 NW10      30.03R
OFFUTT AFB     CLOUDY    83  65  56 W2        30.03R
PLATTSMOUTH    CLOUDY    81  68  65 CALM      30.05R
WAHOO          FAIR      83  66  54 N7        30.04R
$$




USA.gov is the U.S. government's official web portal to all federal, state and local government web resources and services.